Погода в Джурджу

Румыния     43°53′44″N   25°57′57″E
темп.,
°C
ветер,
м/с
пор.,
м/с
влажн.,
%
обл.,
%
осадки,
мм/ч
давл.,
гПа
погр.,
м
28 февраля, вс
вс2823:00+5всв9148689 3.8 1026754
02:00+6в4107495 7.9 1028872
05:00+5зсз227373 0.0 102888
08:00+5з368054 0.0 1029302
11:00+8з567024 0.0 1029880
14:00+10зсз345750 0.1 10281147
17:00+11сз244832 0.1 10271730
20:00+7вюв336228 0.1 102855
1 марта, пн
пн123:00+6ююв35640 0.0 1028105
02:00+5ююз347516 0.0 102790
05:00+4юз238271 0.0 102670
08:00+4юв118285 0.2 102697
11:00+5зюз3380100 0.6 1027471
14:00+6зсз1378100 1.1 1029539
17:00+6всв468598 0.4 1029606
20:00+5св397996 0.9 1032733
2 марта, вт
вт223:00+4св3108796 0.0 1034606
02:00+2св238785 0.0 103571
05:00+2сз118977 0.0 103529
08:00+3з228588 0.0 1035165
11:00+5зюз337597 0.0 1034602
14:00+8з456097 0.0 10331116
17:00+9з466039 0.0 1031829
20:00+6зюз347036 0.0 103183
3 марта, ср
ср323:00+5зюз46740 0.0 1031109
02:00+4з36800 0.0 103198
05:00+3зюз34860 0.0 103184
08:00+4зюз34860 0.0 1031142
11:00+9зюз23620 0.0 1031504
14:00+13юз22470 0.0 1029912
17:00+13ююз12470 0.0 1028921
20:00+9ююв12600 0.0 102922
4 марта, чт
чт423:00+8ю11650 0.0 102922
02:00+7ю12690 0.0 102722
05:00+5ююз12720 0.0 102622
08:00+6юз22730 0.0 102542
11:00+11юз23530 0.0 1023477
14:00+15зюз34400 0.0 1020922
17:00+15зюз24450 0.0 1018312
20:00+11з22551 0.0 101822